Location: Tarleton Observatory
(32.2162°N, 98.0976°W)
Time: 12:12:39
(UTC-06:00)

Daily predictions for brighter satellites

Satellite Brightness Start Highest point End
(mag) Time Altitude Azimuth Time Altitude Azimuth Time Altitude Azimuth
Cosmos 2278 Rocket 2.8 18:12:56 10° N 18:18:06 35° ENE 18:23:14 10° SE
COSMOS 2441 4.4 18:14:30 10° SSE 18:19:19 63° ENE 18:24:06 10° N
Atlas Centaur 2 3.6 18:16:16 10° W 18:21:18 31° SSW 18:25:24 10° SE
Cosmos 1461 3.8 18:17:37 10° S 18:21:25 32° ESE 18:25:08 10° NE
Cosmos 2058 3.2 18:21:04 10° SSE 18:24:59 45° E 18:28:55 10° NNE
Centaur AC-119 3.7 18:24:36 10° S 18:25:49 14° SSE 18:27:26 10° ESE
CZ-4 R/B 4.4 18:22:29 10° SSE 18:26:38 85° E 18:30:47 10° N
OTV 4 0.9 18:24:26 10° WNW 18:27:18 43° NNE 18:30:08 10° E
Cosmos 1340 Rocket 3.2 18:25:52 10° SSE 18:29:34 39° E 18:33:15 10° NNE
Aureole 2 Rocket 2.6 18:26:14 10° S 18:29:43 63° ESE 18:33:34 10° NNE
Cosmos 1844 3.7 18:24:42 10° NNW 18:30:31 83° ENE 18:36:18 10° SSE
Cosmos 1726 2.2 18:28:42 10° N 18:32:27 58° E 18:36:09 10° SSE
SL-14 R/B 3.2 18:29:16 10° S 18:33:10 86° E 18:37:08 10° N
YAOGAN 1 3.5 18:32:07 10° S 18:36:20 54° W 18:40:35 10° NNW
Cosmos 1484 Rocket 2.7 18:33:14 10° SSE 18:37:06 77° ENE 18:41:05 10° N
Cosmos 2237 Rocket 2.6 18:32:15 10° SSW 18:37:48 67° WNW 18:43:26 10° NNE
Resurs 01 Rocket 3.6 18:40:43 11° NE 18:40:43 11° NE 18:41:04 10° NE
COSMO-SKYMED 1 2.7 18:36:40 10° N 18:41:02 83° W 18:45:21 10° SSW
MONITOR-E 4.4 18:38:14 10° S 18:41:24 77° W 18:44:33 10° NNW
Cosmos 1300 2.6 18:38:37 10° N 18:42:27 80° E 18:46:16 10° S
SL-16 R/B 2.3 18:38:31 10° S 18:44:00 54° ESE 18:49:30 10° NNE
ALOS 3.7 18:42:27 10° ESE 18:45:15 16° ENE 18:48:02 10° NNE
BREEZE-M DEB (TANK) 4.0 18:45:25 10° WNW 18:46:55 13° NW 18:48:09 10° N
Cosmos 1356 Rocket 4.0 18:43:54 10° SSE 18:47:29 33° E 18:51:04 10° NNE
Cosmos 1666 Rocket 4.2 18:43:52 10° SSE 18:47:42 32° E 18:51:35 10° NNE
Milstar 3 3.4 18:47:40 10° W 18:54:14 51° SSW 19:01:17 10° ESE
BREEZE-M DEB (TANK) 2.5 18:49:23 10° NW 18:54:42 71° SW 18:57:26 10° SE
Hubble Space Telescope 3.3 18:53:18 10° WSW 18:56:05 17° SSW 18:58:51 10° SSE
Cosmos 372 Rocket 3.9 18:51:11 10° N 18:56:15 67° ENE 19:01:18 10° SSE
Aureole 1 Rocket 4.3 18:53:50 10° SSE 18:58:06 33° E 19:03:16 11° NE
Cosmos 2297 4.2 18:54:22 10° N 18:59:36 36° ENE 19:04:50 10° SE
Cosmos 2151 4.4 18:57:58 10° SSW 19:01:54 39° W 19:05:51 10° N
Cosmos 2279 Rocket 3.9 18:57:12 10° N 19:03:26 83° E 19:09:40 10° S
Meteor 1-28 Rocket 4.0 19:03:21 10° N 19:06:58 52° WNW 19:10:34 10° SSW
OAO 1 Rocket 4.5 19:02:03 10° WNW 19:07:21 70° N 19:10:25 25° E
FREGAT/IRIS 2.9 19:05:44 10° SSE 19:08:38 42° ENE 19:11:33 10° N
USA 215 3.7 19:05:31 17° E 19:10:10 41° NE 19:16:13 10° NNW
Lacrosse 5 rocket 1.7 19:08:41 10° NNW 19:12:19 39° NE 19:13:10 34° E
Timation 1 Rocket 4.4 19:09:10 10° NNW 19:15:05 56° ENE 19:20:57 10° SE
Nadezhda 4 Rocket 3.9 19:11:59 10° S 19:18:09 72° E 19:24:26 10° N
FAST Rocket 4.3 19:17:43 10° SSW 19:20:35 61° W 19:21:52 25° N
FENGYUN 3A 3.9 19:20:42 10° SE 19:25:44 44° ENE 19:30:49 10° N
Cosmos 1805 Rocket 4.4 19:21:59 10° SSW 19:26:19 52° W 19:30:41 10° N
METEOR-M 4.3 19:27:52 10° S 19:33:12 76° WSW 19:38:34 10° NNW
FengYun 1-2 T 4.2 19:28:15 10° SSE 19:33:41 58° ENE 19:39:07 10° N
SJ-6B 3.1 19:32:26 10° S 19:36:26 69° WSW 19:40:33 10° NNW
Cosmos 1092 Rocket 3.9 19:31:15 10° S 19:37:32 74° E 19:43:52 10° N
Spot 2 Rocket 3.5 19:33:16 10° SSE 19:38:11 55° ENE 19:43:06 10° N
Cosmos 1184 Rocket 3.9 19:41:45 10° SSW 19:44:58 44° W 19:45:36 39° NW
Sich 1 4.0 19:41:30 10° SSW 19:45:48 49° W 19:50:07 10° N
Cosmos 1626 3.9 19:43:19 10° SW 19:46:40 31° W 19:50:03 10° NNW
Cosmos 1603 3.5 19:42:47 10° S 19:48:21 69° ESE 19:49:22 56° NE
Helios 1B rocket 4.0 19:50:43 25° S 19:50:43 25° S 19:52:30 10° S
USA 229 DEB 3.7 19:44:12 10° SSW 19:51:03 82° WNW 19:54:38 31° NNE
USA 229 3.7 19:44:17 10° SSW 19:51:08 83° WNW 19:54:41 32° NNE
Cosmos 1633 Rocket 4.0 19:47:38 10° SSW 19:51:54 47° W 19:55:33 14° N
Cosmos 1900 4.1 19:47:25 10° NNW 19:52:24 78° ENE 19:52:31 78° E
Cosmos 923 Rocket 3.9 19:52:43 10° SSW 19:57:56 88° WNW 19:58:38 68° N
Cosmos 1455 3.1 19:55:09 10° NNW 19:58:49 48° W 20:02:29 10° SSW
Iridium 4 Rocket 3.5 19:55:04 10° S 19:59:45 62° W 20:01:17 38° NNW
Cosmos 2278 Rocket 4.4 19:57:23 10° NW 20:01:56 25° WSW 20:06:29 10° SSW
OTV 4 3.5 20:00:38 10° W 20:01:32 17° W 20:01:32 17° W
Cosmos 2195 Rocket 4.2 19:57:39 10° S 20:03:44 77° E 20:04:47 62° NNE
Cosmos 1680 Rocket 3.6 20:00:26 10° SSW 20:04:44 62° S 20:04:44 62° S
Intelsat 5-1 Rocket 3.9 20:07:41 10° SW 20:10:16 25° S 20:10:16 25° S
Resurs 01 Rocket 3.7 20:11:08 10° S 20:18:16 20° NNW 20:19:47 10° NNW
ALOS 3.5 20:17:55 10° SSW 20:22:18 40° W 20:26:42 10° NNW
BREEZE-M DEB (TANK) 3.8 20:24:48 10° SW 20:29:04 89° NW 20:29:35 79° NE
USA 215 3.9 20:52:55 48° SW 20:53:01 48° SW 20:59:19 10° NW
H-2A ROCKET BODY 4.2 21:09:01 10° W 21:15:30 30° WSW 21:15:30 30° WSW
